Tracking 31027 objects as of 19-Jul-2025
HD Live streaming from Space Station
objects crossing your sky now

FENGYUN 1C DEB

Track FENGYUN 1C DEB now!
10-day predictions


NORAD ID: 31325
Int'l Code: 1999-025BQD
Perigee: 797.4 km
Apogee: 898.0 km
Inclination: 99.0 °
Period: 101.7 minutes
Semi major axis: 7218 km
RCS: 0.0037 m2 (small)
Launch date: May 10, 1999
Source: People's Republic of China (PRC)
Launch site: Taiyaun Space Center, China (TSC)

Note: This is SATELLITE DEBRIS
Your satellite tracking list
ONEWEB-0142
Track 1 satellite(s)




NASA's NSSDC Master Catalog

Two Line Element Set (TLE):
1 31325U 99025BQD 25198.04277667  .00002090  00000-0  10673-2 0  9993
2 31325  98.9929 290.7803 0069719 282.4530  76.8848 14.15511832576737
Source of the keplerian elements: AFSPC